| time (UTC) | temp F | wind direction | speed knots | gust knots | rain 1hr in | rain 24hr in | rain mn in | humidity % | barometer mb |
| 20260506231544 | 69 | 300 | 1.7 | 6.1 | 0.00 | 0.02 | 0.02 | 75 | 1008.4 |
| 20260506230038 | 71 | 30 | 1.7 | 7.0 | 0.00 | 0.02 | 0.02 | 72 | 1008.3 |
| 20260506224536 | 72 | 343 | 1.7 | 7.0 | 0.00 | 0.02 | 0.02 | 71 | 1008.2 |
| 20260506223036 | 74 | 34 | 1.7 | 5.2 | 0.00 | 0.02 | 0.02 | 70 | 1007.9 |
| 20260506221535 | 74 | 333 | 2.6 | 7.8 | 0.00 | 0.02 | 0.02 | 71 | 1007.8 |
| 20260506220036 | 75 | 219 | 1.7 | 7.0 | 0.00 | 0.02 | 0.02 | 70 | 1007.8 |
| 20260506214533 | 75 | 345 | 1.7 | 7.0 | 0.00 | 0.02 | 0.02 | 70 | 1007.8 |
| 20260506213032 | 76 | 109 | 1.7 | 7.0 | 0.00 | 0.02 | 0.02 | 70 | 1007.5 |
| 20260506211533 | 77 | 141 | 1.7 | 8.7 | 0.00 | 0.02 | 0.02 | 69 | 1007.3 |
| 20260506210031 | 79 | 56 | 1.7 | 4.3 | 0.00 | 0.02 | 0.02 | 68 | 1007.3 |
| 20260506204528 | 77 | 148 | 0.0 | 6.1 | 0.00 | 0.02 | 0.02 | 74 | 1007.5 |
| 20260506203027 | 75 | 226 | 2.6 | 8.7 | 0.00 | 0.02 | 0.02 | 75 | 1007.3 |
| 20260506201526 | 77 | 264 | 2.6 | 9.6 | 0.00 | 0.02 | 0.02 | 73 | 1007.1 |
| 20260506200025 | 85 | 279 | 0.0 | 3.5 | 0.00 | 0.02 | 0.02 | 69 | 1007.3 |
| 20260506194524 | 85 | 28 | 0.0 | 2.6 | 0.00 | 0.02 | 0.02 | 70 | 1007.0 |
| 20260506193020 | 83 | 51 | 0.0 | 2.6 | 0.00 | 0.02 | 0.02 | 74 | 1007.0 |
| 20260506191519 | 82 | 117 | 1.7 | 3.5 | 0.00 | 0.02 | 0.02 | 76 | 1007.2 |
| 20260506190019 | 82 | 120 | 1.7 | 3.5 | 0.00 | 0.02 | 0.02 | 76 | 1007.4 |
| 20260506184517 | 80 | 127 | 0.9 | 3.5 | 0.00 | 0.02 | 0.02 | 76 | 1007.3 |
| 20260506183018 | 81 | 21 | 0.9 | 6.1 | 0.00 | 0.02 | 0.02 | 74 | 1007.8 |
| 20260506181512 | 79 | 260 | 0.0 | 2.6 | 0.00 | 0.02 | 0.02 | 76 | 1007.7 |
| 20260506180009 | 78 | 265 | 0.9 | 3.5 | 0.00 | 0.02 | 0.02 | 77 | 1007.8 |
| 20260506174508 | 76 | 230 | 0.0 | 2.6 | 0.00 | 0.02 | 0.02 | 80 | 1007.9 |
| 20260506173006 | 73 | 101 | 0.9 | 2.6 | 0.00 | 0.02 | 0.02 | 84 | 1008.2 |
| 20260506171510 | 73 | 268 | 1.7 | 5.2 | 0.00 | 0.02 | 0.02 | 84 | 1008.4 |
| 20260506170005 | 75 | 203 | 0.9 | 6.1 | 0.00 | 0.02 | 0.02 | 80 | 1008.4 |
| 20260506164505 | 77 | 114 | 0.9 | 1.7 | 0.00 | 0.02 | 0.02 | 85 | 1008.4 |
| 20260506163007 | 78 | 108 | 0.9 | 3.5 | 0.00 | 0.02 | 0.02 | 86 | 1008.3 |
| 20260506161619 | 77 | 108 | 0.9 | 1.7 | 0.00 | 0.02 | 0.02 | 89 | 1008.5 |
| 20260506160059 | 76 | 104 | 0.0 | 0.9 | 0.00 | 0.02 | 0.02 | 89 | 1008.5 |
| 20260506154619 | 75 | 115 | 0.0 | 1.7 | 0.00 | 0.02 | 0.02 | 90 | 1008.3 |
| 20260506153107 | 75 | 97 | 0.0 | 0.9 | 0.00 | 0.02 | 0.02 | 91 | 1008.0 |
| 20260506151557 | 74 | 110 | 0.0 | 1.7 | 0.00 | 0.02 | 0.02 | 91 | 1007.5 |
| 20260506150051 | 74 | 122 | 0.0 | 0.9 | 0.00 | 0.02 | 0.02 | 92 | 1007.4 |
| 20260506144549 | 74 | 84 | 0.0 | 0.9 | 0.00 | 0.02 | 0.02 | 92 | 1007.3 |
| 20260506143103 | 74 | 32 | 0.0 | 0.9 | 0.00 | 0.02 | 0.02 | 92 | 1007.4 |
| 20260506141547 | 74 | 92 | 0.0 | 0.9 | 0.00 | 0.02 | 0.02 | 92 | 1007.4 |
| 20260506140046 | 73 | 96 | 0.9 | 3.5 | 0.00 | 0.02 | 0.02 | 93 | 1006.9 |
| 20260506134545 | 73 | 140 | 0.9 | 3.5 | 0.00 | 0.02 | 0.02 | 93 | 1006.4 |
| 20260506133042 | 73 | 148 | 0.9 | 5.2 | 0.00 | 0.02 | 0.02 | 94 | 1006.2 |
| 20260506131540 | 72 | 142 | 2.6 | 5.2 | 0.00 | 0.02 | 0.02 | 94 | 1006.2 |
| 20260506130039 | 72 | 121 | 1.7 | 4.3 | 0.00 | 0.02 | 0.02 | 94 | 1006.0 |
| 20260506124538 | 72 | 131 | 1.7 | 5.2 | 0.00 | 0.02 | 0.02 | 94 | 1006.1 |
| 20260506123038 | 72 | 122 | 1.7 | 3.5 | 0.00 | 0.02 | 0.02 | 94 | 1006.0 |
| 20260506121541 | 72 | 127 | 0.9 | 2.6 | 0.00 | 0.02 | 0.02 | 94 | 1006.0 |
| 20260506120036 | 72 | 122 | 0.9 | 2.6 | 0.00 | 0.02 | 0.02 | 94 | 1005.9 |
| 20260506114543 | 72 | 120 | 0.0 | 2.6 | 0.00 | 0.02 | 0.02 | 94 | 1005.8 |
| 20260506113036 | 72 | 143 | 0.0 | 1.7 | 0.00 | 0.02 | 0.02 | 94 | 1005.7 |
| 20260506111538 | 72 | 143 | 0.0 | 2.6 | 0.00 | 0.02 | 0.02 | 94 | 1005.6 |
| 20260506110034 | 72 | 249 | 0.0 | 3.5 | 0.00 | 0.02 | 0.02 | 94 | 1005.7 |
| 20260506104534 | 72 | 166 | 0.9 | 1.7 | 0.00 | 0.02 | 0.02 | 94 | 1005.5 |
| 20260506103033 | 72 | 146 | 1.7 | 5.2 | 0.00 | 0.02 | 0.02 | 94 | 1005.5 |
| 20260506101534 | 72 | 214 | 0.9 | 5.2 | 0.01 | 0.02 | 0.02 | 94 | 1005.5 |
| 20260506100031 | 72 | 146 | 1.7 | 4.3 | 0.01 | 0.02 | 0.02 | 94 | 1005.4 |
| 20260506094535 | 72 | 113 | 2.6 | 5.2 | 0.02 | 0.02 | 0.02 | 94 | 1005.3 |
| 20260506093031 | 72 | 216 | 2.6 | 5.2 | 0.02 | 0.02 | 0.02 | 94 | 1005.2 |
| 20260506091530 | 72 | 256 | 1.7 | 5.2 | 0.01 | 0.01 | 0.01 | 93 | 1005.1 |
| 20260506090029 | 72 | 172 | 1.7 | 5.2 | 0.01 | 0.01 | 0.01 | 93 | 1005.1 |
| 20260506084528 | 72 | 174 | 2.6 | 7.8 | 0.00 | 0.00 | 0.00 | 93 | 1005.0 |
| 20260506083027 | 73 | 160 | 2.6 | 8.7 | 0.00 | 0.00 | 0.00 | 92 | 1004.9 |
| 20260506081523 | 74 | 136 | 3.5 | 7.0 | 0.00 | 0.00 | 0.00 | 89 | 1005.0 |
| 20260506073019 | 74 | 141 | 3.5 | 6.1 | 0.00 | 0.00 | 0.00 | 90 | 1005.5 |
| 20260506071516 | 75 | 154 | 3.5 | 7.0 | 0.00 | 0.00 | 0.00 | 89 | 1005.5 |
| 20260506061516 | 75 | 140 | 4.3 | 7.0 | 0.00 | 0.00 | 0.00 | 89 | 1005.8 |
| 20260506044503 | 76 | 107 | 4.3 | 8.7 | 0.00 | 0.00 | 0.00 | 87 | 1005.7 |
| 20260506043102 | 76 | 132 | 6.1 | 11.3 | 0.00 | 0.00 | 0.00 | 87 | 1005.6 |
| 20260506041559 | 76 | 165 | 5.2 | 8.7 | 0.00 | 0.00 | 0.00 | 87 | 1005.5 |
| 20260506040104 | 76 | 155 | 4.3 | 8.7 | 0.00 | 0.00 | 0.00 | 87 | 1005.3 |
| 20260506034613 | 76 | 134 | 5.2 | 7.8 | 0.00 | 0.00 | 0.00 | 86 | 1005.3 |
| 20260506033057 | 77 | 132 | 4.3 | 7.8 | 0.00 | 0.00 | 0.00 | 86 | 1005.1 |
| 20260506031604 | 77 | 146 | 5.2 | 7.8 | 0.00 | 0.00 | 0.00 | 85 | 1004.6 |
| 20260506030056 | 77 | 179 | 3.5 | 5.2 | 0.00 | 0.00 | 0.00 | 84 | 1004.4 |
| 20260506024555 | 78 | 142 | 3.5 | 6.1 | 0.00 | 0.00 | 0.00 | 83 | 1004.4 |
| 20260506023054 | 78 | 148 | 3.5 | 7.0 | 0.00 | 0.00 | 0.00 | 82 | 1004.2 |
| 20260506021558 | 79 | 155 | 4.3 | 6.1 | 0.00 | 0.00 | 0.00 | 80 | 1003.9 |
| 20260506020055 | 79 | 139 | 1.7 | 3.5 | 0.00 | 0.00 | 0.00 | 80 | 1003.8 |
| 20260506014552 | 80 | 148 | 1.7 | 4.3 | 0.00 | 0.00 | 0.00 | 79 | 1003.5 |
| 20260506013052 | 80 | 144 | 2.6 | 4.3 | 0.00 | 0.00 | 0.00 | 78 | 1003.4 |
| 20260506011551 | 80 | 138 | 1.7 | 3.5 | 0.00 | 0.00 | 0.00 | 78 | 1003.3 |
| 20260506010053 | 81 | 142 | 1.7 | 3.5 | 0.00 | 0.00 | 0.00 | 76 | 1003.3 |
| 20260506004549 | 82 | 142 | 1.7 | 3.5 | 0.00 | 0.00 | 0.00 | 75 | 1003.4 |
| 20260506003048 | 83 | 136 | 0.9 | 5.2 | 0.00 | 0.00 | 0.00 | 73 | 1003.2 |
| 20260506001547 | 83 | 173 | 0.9 | 1.7 | 0.00 | 0.00 | 0.00 | 72 | 1003.2 |
| 20260506000047 | 83 | 162 | 0.9 | 3.5 | 0.00 | 0.00 | 0.00 | 72 | 1003.1 |
| 20260505234555 | 84 | 151 | 0.9 | 2.6 | 0.00 | 0.00 | 0.00 | 71 | 1003.0 |
| 20260505233051 | 84 | 142 | 2.6 | 4.3 | 0.00 | 0.00 | 0.00 | 70 | 1002.9 |